Weather History for Peru, IL

Change the Weather History Date:

Saturday, June 28, 2014

  Actual Average Record
Temperature  
Mean Temperature 77 °F -  
Max Temperature 84 °F 85 °F 96 °F (2012)
Min Temperature 70 °F 61 °F 46 °F (1992)
Cooling Degree Days 12    
Growing Degree Days 27 (Base 50)    
Moisture  
Dew Point 69 °F    
Average Humidity 77    
Maximum Humidity 91    
Minimum Humidity 63    
Precipitation  
Precipitation 0.00 in - - ()
Sea Level Pressure  
Sea Level Pressure 29.97 in    
Wind  
Wind Speed 11 mph (SSE)    
Max Wind Speed 18 mph    
Max Gust Speed 28 mph    
Visibility 10 miles    
Events      
Averages and records for this station are not official NWS values.
T = Trace of Precipitation, MM = Missing Value Source: NWS Daily Summary

Daily Weather History Graph

Daily Weather History Graph

Search for Another Location

Airport:

Trip Planner

Search our weather history database for the weather conditions in past years. The results will help you decide how hot, cold, wet, or windy it might be!

Date:

Astronomy

Jun. 28, 2014 Rise Set
Actual Time 5:25 AM CDT 8:34 PM CDT
Civil Twilight 4:51 AM CDT 9:07 PM CDT
Nautical Twilight 4:08 AM CDT 9:51 PM CDT
Astronomical Twilight 3:16 AM CDT 10:42 PM CDT
Moon 6:50 AM CDT (6/28) 9:17 PM CDT (6/28)
Length of Visible Light 16h 16m
Length of Day
15h 08m
New Moon, 2% of the Moon is Illuminated
Jun 28
New Moon
Jul 5
First Quarter
Jul 12
Full
Jul 18
Last Quarter
Jul 26
New

Hourly Weather History & Observations

Time (CDT) Temp. Heat Index Dew Point Humidity Pressure Visibility Wind Dir Wind Speed Gust Speed Precip Events Conditions
12:15 AM 71.6 °F - 66.9 °F 85% 30.00 in 10.0 mi South 4.6 mph - N/A   Clear
12:35 AM 70.9 °F - 66.4 °F 86% 30.00 in 10.0 mi SSE 6.9 mph - N/A   Clear
12:55 AM 70.7 °F - 66.4 °F 86% 30.00 in 10.0 mi SE 6.9 mph - N/A   Clear
1:15 AM 70.7 °F - 66.6 °F 87% 29.99 in 10.0 mi SE 8.1 mph - N/A   Clear
1:35 AM 70.7 °F - 66.2 °F 86% 29.99 in 10.0 mi SE 9.2 mph - N/A   Clear
1:55 AM 71.4 °F - 66.2 °F 84% 29.99 in 10.0 mi SE 10.4 mph - N/A   Clear
2:15 AM 71.6 °F - 66.2 °F 83% 29.99 in 10.0 mi SSE 9.2 mph - N/A   Clear
2:35 AM 71.6 °F - 66.2 °F 83% 29.99 in 10.0 mi SSE 9.2 mph - N/A   Clear
2:55 AM 71.6 °F - 66.4 °F 84% 29.99 in 10.0 mi SSE 9.2 mph - N/A   Clear
3:15 AM 71.6 °F - 66.4 °F 84% 29.98 in 10.0 mi SSE 8.1 mph - N/A   Clear
3:35 AM 71.6 °F - 66.7 °F 85% 29.97 in 10.0 mi SE 10.4 mph - N/A   Clear
3:55 AM 71.6 °F - 67.1 °F 86% 29.97 in 10.0 mi SE 10.4 mph 18.4 mph N/A   Clear
4:15 AM 71.6 °F - 67.3 °F 86% 29.97 in 10.0 mi SSE 11.5 mph - N/A   Clear
4:35 AM 71.6 °F - 67.5 °F 87% 29.98 in 10.0 mi SSE 10.4 mph - N/A   Clear
4:55 AM 71.6 °F - 67.6 °F 87% 29.99 in 10.0 mi SSE 10.4 mph - N/A   Clear
5:15 AM 71.6 °F - 68.0 °F 88% 29.99 in 10.0 mi SE 9.2 mph - N/A   Scattered Clouds
5:35 AM 71.6 °F - 68.2 °F 89% 29.99 in 10.0 mi SE 10.4 mph - N/A   Light Drizzle
5:55 AM 71.6 °F - 68.5 °F 90% 29.99 in 10.0 mi SSE 10.4 mph - N/A   Light Drizzle
6:15 AM 71.6 °F - 68.9 °F 91% 30.00 in 10.0 mi SSE 11.5 mph - N/A   Light Drizzle
6:35 AM 71.6 °F - 68.9 °F 91% 30.01 in 10.0 mi SSE 11.5 mph - N/A   Scattered Clouds
6:55 AM 71.6 °F - 68.9 °F 91% 30.01 in 10.0 mi SSE 9.2 mph - N/A   Overcast
7:15 AM 71.8 °F - 69.1 °F 91% 30.01 in 10.0 mi South 10.4 mph - N/A   Overcast
7:35 AM 72.7 °F - 70.0 °F 91% 30.02 in 7.0 mi South 9.2 mph - N/A   Overcast
7:55 AM 72.9 °F - 69.8 °F 90% 30.02 in 7.0 mi South 11.5 mph - N/A   Overcast
8:15 AM 73.4 °F - 70.2 °F 90% 30.02 in 7.0 mi South 10.4 mph - N/A   Overcast
8:35 AM 73.6 °F - 70.0 °F 88% 30.02 in 7.0 mi South 10.4 mph 17.3 mph N/A   Overcast
8:55 AM 75.2 °F - 70.9 °F 86% 30.02 in 7.0 mi South 11.5 mph - N/A   Overcast
9:15 AM 75.6 °F - 70.3 °F 84% 30.02 in 10.0 mi South 12.7 mph - N/A   Overcast
9:35 AM 76.8 °F - 70.2 °F 80% 30.02 in 10.0 mi South 11.5 mph - N/A   Overcast
9:55 AM 78.4 °F - 70.9 °F 77% 30.02 in 10.0 mi SSE 10.4 mph - N/A   Overcast
10:15 AM 78.1 °F - 70.2 °F 77% 30.02 in 10.0 mi South 16.1 mph 20.7 mph N/A   Overcast
10:35 AM 77.9 °F - 70.0 °F 76% 30.02 in 10.0 mi South 15.0 mph 18.4 mph N/A   Overcast
10:55 AM 78.4 °F - 70.2 °F 76% 30.02 in 10.0 mi South 13.8 mph - N/A   Overcast
11:15 AM 79.0 °F - 70.0 °F 74% 30.02 in 10.0 mi South 12.7 mph - N/A   Overcast
11:35 AM 80.2 °F 83.9 °F 71.2 °F 74% 30.01 in 10.0 mi SSE 12.7 mph - N/A   Overcast
11:55 AM 80.8 °F 84.2 °F 70.0 °F 70% 30.01 in 10.0 mi South 12.7 mph - N/A   Mostly Cloudy
12:15 PM 81.1 °F 84.7 °F 70.2 °F 69% 30.00 in 10.0 mi South 16.1 mph - N/A   Mostly Cloudy
12:35 PM 81.5 °F 85.3 °F 70.5 °F 69% 29.99 in 10.0 mi SSE 13.8 mph - N/A   Mostly Cloudy
12:55 PM 82.6 °F 87.1 °F 70.9 °F 68% 29.99 in 10.0 mi SSE 18.4 mph - N/A   Mostly Cloudy
1:15 PM 82.8 °F 86.9 °F 70.5 °F 66% 29.98 in 10.0 mi SSE 18.4 mph 24.2 mph N/A   Scattered Clouds
1:35 PM 83.8 °F 88.3 °F 70.7 °F 64% 29.97 in 10.0 mi SSE 16.1 mph 21.9 mph N/A   Mostly Cloudy
1:55 PM 83.7 °F 88.3 °F 70.9 °F 65% 29.97 in 10.0 mi SSE 17.3 mph 20.7 mph N/A   Mostly Cloudy
2:15 PM 83.3 °F 87.4 °F 70.2 °F 64% 29.98 in 10.0 mi SSE 16.1 mph 26.5 mph N/A   Overcast
2:35 PM 83.5 °F 87.4 °F 69.6 °F 63% 29.97 in 10.0 mi South 17.3 mph 27.6 mph N/A   Mostly Cloudy
2:55 PM 83.8 °F 88.3 °F 70.5 °F 64% 29.97 in 10.0 mi South 16.1 mph 21.9 mph N/A   Mostly Cloudy
3:15 PM 83.5 °F 88.0 °F 70.5 °F 65% 29.96 in 10.0 mi South 15.0 mph 18.4 mph N/A   Overcast
3:35 PM 83.1 °F 87.3 °F 70.2 °F 65% 29.95 in 10.0 mi South 16.1 mph 23.0 mph N/A   Mostly Cloudy
3:55 PM 84.0 °F 88.7 °F 70.5 °F 64% 29.94 in 10.0 mi SSE 16.1 mph 24.2 mph N/A   Mostly Cloudy
4:15 PM 83.3 °F 87.4 °F 69.8 °F 64% 29.95 in 10.0 mi South 18.4 mph - N/A   Mostly Cloudy
4:35 PM 83.1 °F 87.3 °F 70.3 °F 65% 29.96 in 10.0 mi South 15.0 mph - N/A   Overcast
4:55 PM 83.1 °F 87.1 °F 69.8 °F 64% 29.95 in 10.0 mi South 18.4 mph 21.9 mph N/A   Mostly Cloudy
5:15 PM 83.7 °F 87.7 °F 70.0 °F 63% 29.95 in 10.0 mi South 18.4 mph 24.2 mph N/A   Mostly Cloudy
5:35 PM 84.2 °F 89.0 °F 70.7 °F 64% 29.93 in 10.0 mi South 18.4 mph 24.2 mph N/A   Mostly Cloudy
5:55 PM 83.5 °F 87.4 °F 69.8 °F 63% 29.92 in 10.0 mi South 18.4 mph 23.0 mph N/A   Scattered Clouds
6:15 PM 82.8 °F 86.9 °F 70.2 °F 66% 29.90 in 10.0 mi South 12.7 mph 21.9 mph N/A   Clear
6:35 PM 82.8 °F 86.9 °F 70.2 °F 66% 29.89 in 10.0 mi South 12.7 mph - N/A   Scattered Clouds
6:55 PM 82.8 °F 86.4 °F 69.6 °F 64% 29.89 in 10.0 mi South 17.3 mph 23.0 mph N/A   Clear
7:15 PM 81.5 °F 85.1 °F 70.0 °F 68% 29.89 in 10.0 mi South 13.8 mph 17.3 mph N/A   Clear
7:35 PM 81.1 °F 84.7 °F 70.0 °F 69% 29.91 in 10.0 mi South 12.7 mph - N/A   Clear
7:55 PM 80.6 °F 83.9 °F 70.0 °F 70% 29.91 in 10.0 mi South 15.0 mph - N/A   Clear
8:15 PM 80.2 °F 83.5 °F 70.2 °F 71% 29.92 in 10.0 mi South 10.4 mph - N/A   Clear
8:35 PM 80.2 °F 83.7 °F 71.1 °F 73% 29.92 in 10.0 mi South 9.2 mph - N/A   Scattered Clouds
8:55 PM 78.8 °F - 70.2 °F 75% 29.92 in 10.0 mi South 10.4 mph - N/A   Scattered Clouds
9:15 PM 78.6 °F - 70.2 °F 75% 29.93 in 10.0 mi SSE 9.2 mph - N/A   Clear
9:35 PM 78.1 °F - 70.2 °F 77% 29.93 in 10.0 mi South 11.5 mph - N/A   Scattered Clouds
9:55 PM 78.3 °F - 70.0 °F 76% 29.93 in 10.0 mi South 11.5 mph - N/A   Mostly Cloudy
10:15 PM 77.9 °F - 69.8 °F 76% 29.93 in 10.0 mi SSE 11.5 mph - N/A   Scattered Clouds
10:35 PM 77.9 °F - 70.0 °F 76% 29.92 in 10.0 mi SSE 11.5 mph 17.3 mph N/A   Clear
10:55 PM 77.0 °F - 69.8 °F 78% 29.93 in 10.0 mi South 15.0 mph 19.6 mph N/A   Clear
11:15 PM 76.6 °F - 69.4 °F 78% 29.93 in 10.0 mi SSE 12.7 mph - N/A   Clear
11:35 PM 76.1 °F - 69.4 °F 80% 29.92 in 10.0 mi SSE 12.7 mph 17.3 mph N/A   Clear
11:55 PM 76.1 °F - 69.6 °F 80% 29.91 in 10.0 mi South 13.8 mph - N/A   Clear